THOR ABLESTAR DEB, 1522

Orbit data source: Space-Track

THOR ABLESTAR DEB, 1522 is space debris in LEO originally from a launch on Fri, 13 Aug 1965 UTC launched from the Air Force Western Test Range (AFWTR). Debris objects in space refer to the collection of defunct objects orbiting the Earth. Examples of debris include non-operational satellites, rocket bodies, and fragments generated from explosions, collisions, or faulty payload assembly.

Loading next visibility...
Identifier
1522, 1965-065L
Orbit
LEO
Country
Flag of USUS
Related business
Manufacturer
Unknown
Mission
Spacecraft
Bus & Motor
Unknown
Mass
Unknown
Launch date (UTC)
1965-08-13 (61 years ago)
Launch vehicle
Unknown
Launch site
Air Force Western Test Range (AFWTR)
Object type
Payload
Rocket body
Debris
Shape & HBR
Unknown shape, 0.4 m
Radar Cross Section
Medium (>0.1 m² and <1 m²)

Expand to show TLE details & history
Last TLE update: 6 hours ago

TLE from 6 hours ago
0 THOR ABLESTAR DEB
1  1522U 65065L   26238.09954338  .00000050  00000-0  80982-4 0  9990
2  1522  90.0627 126.9466 0072501  51.7669  69.0829 13.33862614969116
Epoch: 2026-08-26T02:23Z
TLE epoch observation values (Epoch: 2026-08-26T02:23:20.548Z)
Latitude
58.46265°
Longitude
-63.14477°
Altitude
1,123.078 km
Speed
7.306 km/s
True Right ascension
20h 28m 11s
True Declination
58° 18' 60"
Sunlit
Object was in daylight at epoch
Visualization orbit readout
Latitude
Unknown
Longitude
Unknown
Altitude
Unknown
Speed
Unknown
Apparent Right ascension
Unknown
Apparent Declination
Unknown
Sunlit
N/A
Visualization observer readout
Local Sidereal Time
23:18:41
Azimuth
Unknown
Elevation
Unknown
Doppler factor
Unknown
Orbital elements
Apogee altitude
1,183.732 km
Perigee altitude
1,074.873 km
Semi-major axis
7,507.439 km
Eccentricity
0.00725
Inclination
90.0627°
RAAN
126.9466°
Arg. of periapsis
51.7669°
True anomaly
69.86144°
Mean anomaly
69.0829°
Eccentric anomaly
69.47192°
Mean motion
3.33661 °/min
Orbital period
107.89 mins
BSTAR
0.000080982
Loading maneuver chart data...
Computing Atmospheric mass density...
Loading historical data...
Loading historical data...
Loading historical data...
Loading historical data...
Loading historical data...
Loading historical data...
Loading historical data...

Documentation

Showing up to 5 results
|